Вернуться в каталог

IRS P4

OCEANSAT 1

АктивенНаукаSSO
NORAD 25758·PAYLOAD·🇮🇳 India

Запущен May 26, 1999 с Satish Dhawan Space Centre

Loading…

Ближайшие Пролёты (ближайшие 24 часа)

TLE

СвежийSource: Space-Track

Эпоха: Sep 14, 2026, 21:38 UTC

1 25758U 99029C   26257.90171682  .00000279  00000-0  74106-4 0  9992
2 25758  97.9810 226.8122 0001852 208.2261 151.8837 14.55333430447169

Отслеживайте IRS P4 в реальном времени с AllMySat

Download on the App Store